GFSNIL_925_spd_000.txt.gz
Wind_Speed
30 24 20 17 10 6 2 4 7 6 10 12 14 19 21 23 24 24 25 27 27 27
22 19 11 7 7 3 2 4 3 6 10 16 18 20 22 24 24 24 26 27 28 29
6 7 6 5 3 3 3 8 10 11 15 19 21 23 24 25 24 25 27 27 27 28
6 6 7 6 5 2 7 12 17 19 18 21 23 25 25 26 27 28 29 30 31 32
6 7 7 7 2 5 11 19 17 20 22 24 26 26 27 28 28 28 29 30 29 30
6 7 7 6 8 12 17 16 20 22 24 26 26 27 28 29 29 30 30 29 29 29
10 10 8 8 8 15 17 19 21 24 26 27 28 27 27 27 29 29 28 26 26 26
5 9 12 9 13 15 18 22 24 25 27 26 25 25 25 23 22 22 25 26 27 29
11 10 8 12 13 19 22 22 24 25 25 26 24 23 26 27 22 21 24 26 28 32
11 12 11 11 17 19 22 22 23 24 24 24 25 23 24 25 24 23 26 29 30 31
9 7 10 15 18 20 21 22 23 23 23 23 22 26 30 34 32 28 29 31 31 32
4 9 13 17 17 19 21 22 22 20 21 24 27 29 32 32 30 30 32 34 33 33
9 12 16 15 18 20 20 22 21 25 21 21 27 30 31 31 30 30 25 25 24 27
12 15 16 17 19 19 22 22 24 17 20 25 26 28 29 29 30 27 30 27 28 26

GFSNIL_925_spd_003.txt.gz
Wind_Speed
28 39 40 37 22 20 19 13 8 9 5 8 12 15 23 28 30 29 31 30 29 29
16 15 14 13 18 16 14 14 9 8 8 12 17 20 24 25 30 30 31 31 30 30
6 11 14 14 17 15 11 6 5 7 15 22 19 20 25 29 30 30 30 30 30 28
6 8 10 12 10 5 2 3 5 12 14 16 22 26 28 30 31 30 31 31 32 32
10 11 12 13 10 8 6 5 8 11 16 22 23 25 27 29 30 32 32 31 28 28
11 11 13 5 2 4 5 10 12 19 20 22 25 27 30 31 32 32 31 31 29 30
12 11 7 6 3 6 9 14 16 19 24 25 27 30 29 28 30 30 26 22 18 19
9 4 3 3 1 9 14 18 20 21 22 27 23 24 23 19 18 18 20 23 24 27
7 3 4 5 12 16 15 17 18 21 20 22 24 20 16 16 21 24 25 26 26 28
9 4 10 15 9 13 15 17 18 21 23 25 17 15 21 29 30 28 27 28 28 28
6 10 3 7 11 14 13 18 23 24 21 16 23 26 29 29 28 29 31 30 32 32
7 7 9 11 10 14 19 22 21 16 24 21 22 29 28 27 28 28 31 34 33 34
12 12 10 11 14 17 16 20 21 24 12 21 26 28 27 26 25 22 25 27 27 30
10 11 12 15 14 18 18 21 14 18 24 23 25 28 25 25 26 26 28 27 28 27

GFSNIL_925_spd_006.txt.gz
Wind_Speed
24 22 22 23 25 21 20 20 18 17 10 6 10 12 17 24 26 23 22 25 28 30
23 23 18 12 6 16 26 23 17 11 7 10 16 28 21 17 19 23 27 28 30 31
14 7 5 10 22 22 18 11 1 8 17 13 6 9 14 19 24 26 28 29 29 30
9 9 16 19 16 12 7 1 8 3 4 8 11 15 20 21 23 24 24 26 29 30
12 14 17 15 13 9 8 7 4 3 8 13 16 17 20 22 25 28 30 30 30 31
15 17 17 13 9 7 2 4 6 9 14 17 20 24 24 26 27 27 28 29 28 25
11 13 9 9 6 1 4 6 9 14 17 18 20 22 22 21 21 19 17 17 19 22
9 6 4 2 3 16 12 12 12 14 14 16 16 19 17 16 14 17 23 27 29 30
4 3 1 11 11 14 15 10 9 11 14 18 19 17 11 16 23 28 30 29 27 29
8 8 9 9 11 12 7 8 13 17 18 17 14 15 20 21 26 27 27 28 28 28
6 8 9 7 6 9 12 15 17 16 16 16 18 16 23 25 26 27 28 29 29 28
17 16 9 10 12 14 15 16 18 16 15 13 20 24 24 24 25 27 28 27 26 26
7 8 10 12 12 13 16 16 16 10 16 22 26 24 21 21 23 23 25 26 27 27
11 13 13 11 14 15 17 11 14 18 22 23 21 23 22 21 23 24 26 26 27 27

GFSNIL_925_spd_009.txt.gz
Wind_Speed
26 28 29 29 24 21 12 12 20 23 16 12 8 14 17 17 17 17 14 13 17 20
29 29 30 29 19 9 9 20 19 12 9 12 15 23 21 13 9 14 18 18 19 19
29 27 23 16 9 12 19 13 6 3 14 18 12 7 10 13 15 16 17 18 19 20
30 20 11 11 13 16 9 2 5 8 3 4 8 11 14 14 15 17 20 22 23 24
31 18 14 14 12 10 5 2 2 3 3 6 10 13 14 17 18 20 22 22 22 24
28 15 14 11 9 4 1 2 5 8 10 12 12 14 15 16 18 18 19 19 19 18
16 10 10 4 3 6 10 12 13 13 13 13 13 14 15 18 18 16 14 16 20 22
4 3 4 5 9 12 16 13 18 14 12 12 16 18 17 15 12 16 21 26 30 30
5 6 9 11 12 13 19 16 10 12 16 17 15 12 9 15 19 23 27 28 28 28
9 7 10 13 11 8 8 10 13 13 14 14 14 16 15 19 24 26 28 26 26 26
11 11 12 12 10 9 10 11 13 14 14 14 15 18 23 25 25 26 26 27 26 26
17 13 10 9 12 10 13 13 14 10 12 17 23 25 23 21 23 26 27 27 25 25
9 10 11 11 11 12 14 13 8 14 19 22 24 23 22 21 23 21 21 21 23 26
11 11 10 11 13 14 12 10 16 19 21 22 22 23 24 21 21 22 24 24 26 26

GFSNIL_925_spd_012.txt.gz
Wind_Speed
23 27 30 32 34 32 20 10 4 15 16 12 10 9 13 13 11 5 6 7 8 12
28 32 33 35 31 24 9 12 15 10 5 5 3 9 16 10 7 5 4 8 9 12
31 35 33 32 25 13 11 12 6 2 7 9 6 11 7 9 9 9 9 9 10 12
35 33 32 21 13 12 10 2 2 7 11 9 10 8 9 10 9 12 13 14 17 19
30 29 20 6 6 4 1 5 8 9 12 15 14 13 13 13 14 15 17 18 19 20
25 21 11 2 4 4 6 7 9 11 17 16 14 13 12 13 13 16 19 18 17 17
17 10 5 6 8 11 10 13 13 18 18 13 12 13 15 16 17 17 16 17 19 23
8 8 8 11 11 14 18 20 20 20 17 15 16 17 16 15 14 17 22 26 28 29
12 13 11 12 13 12 15 16 14 13 15 17 16 13 14 16 18 22 26 25 26 26
15 15 13 14 14 11 11 11 14 16 17 16 14 15 17 20 23 25 24 25 26 25
12 13 11 10 10 11 11 14 16 16 14 15 20 23 24 22 23 23 24 25 26 25
10 11 13 14 13 12 13 15 14 11 16 20 24 24 22 20 24 26 25 23 21 22
12 12 13 12 12 13 14 11 12 18 19 20 24 23 22 22 25 23 21 23 21 23
13 12 11 13 13 14 12 13 18 19 20 23 24 23 24 23 22 22 23 21 23 24

GFSNIL_925_spd_018.txt.gz
Wind_Speed
15 17 21 24 26 26 25 21 14 7 4 2 2 2 4 5 4 7 3 2 3 2
16 19 22 23 23 23 21 15 7 5 4 3 5 6 8 6 6 3 4 5 5 4
17 19 19 20 19 17 14 7 6 6 5 4 5 8 9 9 9 8 9 10 10 10
18 16 15 16 14 10 6 6 7 5 4 7 12 12 12 12 12 12 12 13 14 15
14 13 14 12 10 8 7 6 6 7 10 12 12 12 12 12 11 12 13 14 17 19
13 13 14 10 9 9 9 9 11 10 10 12 12 13 13 15 15 16 17 17 17 18
13 14 9 14 12 13 14 15 14 14 13 11 11 12 12 14 16 17 17 17 18 18
8 8 9 10 13 14 15 15 14 12 11 11 12 10 12 14 17 19 20 20 20 20
9 11 13 14 14 14 14 14 14 13 13 14 13 12 15 16 19 21 21 21 21 21
11 12 12 14 16 15 15 14 15 15 14 13 14 15 20 19 20 21 21 21 22 23
10 12 13 15 14 15 15 15 15 14 14 16 16 16 18 20 20 20 21 22 23 23
11 12 13 13 14 14 15 15 15 15 16 17 18 17 18 18 21 21 22 21 20 20
10 10 12 13 13 13 15 16 15 16 17 18 18 16 17 18 21 20 20 20 20 19
10 10 11 12 14 15 17 16 14 14 15 15 14 19 17 18 20 20 21 22 22 19

GFSNIL_925_spd_021.txt.gz
Wind_Speed
17 18 19 20 23 24 23 23 21 16 12 7 3 2 6 5 6 7 6 5 6 6
17 18 20 21 22 23 23 22 18 12 8 7 5 6 7 9 12 9 10 10 11 10
18 20 21 21 22 22 20 18 14 11 10 5 5 9 15 16 13 13 13 13 14 13
20 19 18 18 19 18 17 16 15 13 9 8 10 12 12 14 13 14 16 16 17 19
18 17 17 19 16 17 15 15 15 12 11 13 16 14 12 13 12 15 17 18 20 22
18 16 16 17 16 14 15 16 17 16 15 16 14 18 16 17 16 18 20 21 22 22
14 14 13 12 12 14 16 18 20 19 20 19 18 18 18 13 17 19 21 22 22 23
10 13 12 14 15 16 18 19 19 19 19 18 18 17 9 13 19 22 24 24 25 24
12 14 15 15 16 18 18 18 18 18 19 19 19 14 14 15 19 23 25 25 25 25
13 15 15 16 17 17 18 18 19 19 18 18 19 14 16 21 21 24 24 25 25 26
12 14 15 15 16 17 18 18 19 19 18 19 20 16 19 19 22 23 24 25 25 26
14 16 14 15 15 17 17 19 19 19 18 21 22 22 18 19 23 23 24 24 23 22
16 15 13 14 15 16 19 19 20 16 19 19 21 18 17 18 20 22 23 22 22 23
15 16 13 12 16 18 20 21 12 13 17 20 16 18 20 15 16 22 24 24 23 22

GFSNIL_925_spd_024.txt.gz
Wind_Speed
14 12 14 15 19 19 19 20 22 14 12 10 7 6 4 5 8 12 14 13 12 12
14 16 14 15 16 15 18 18 17 19 15 9 8 7 9 11 16 16 15 16 15 15
15 16 15 16 16 16 14 16 17 15 9 7 10 9 12 14 14 15 16 17 17 17
18 16 13 12 16 17 17 15 17 16 13 13 15 16 19 13 13 12 14 15 15 18
17 11 15 17 19 19 17 17 17 18 16 15 15 13 14 17 16 16 15 17 20 22
17 11 14 13 14 14 15 17 19 19 20 17 19 18 18 19 17 13 19 23 24 24
16 8 9 11 14 16 18 18 20 20 20 20 20 20 18 13 13 16 18 23 27 27
19 5 7 10 14 17 18 17 18 20 20 20 20 13 14 15 13 16 20 23 25 26
7 9 10 11 14 16 16 15 17 18 19 20 18 16 15 16 18 18 20 24 26 27
10 12 10 12 13 15 13 15 15 17 17 16 16 16 17 20 22 19 21 24 25 26
10 11 9 11 13 10 12 15 17 16 11 13 15 19 24 24 21 20 21 23 26 26
17 13 10 11 11 9 13 17 14 14 13 14 19 23 22 20 21 19 20 22 23 24
21 21 7 8 11 13 15 13 14 13 14 15 20 19 19 19 18 18 20 22 23 24
16 12 8 7 12 15 14 14 11 12 18 21 18 21 19 17 13 18 21 22 24 25

GFSNIL_925_spd_027.txt.gz
Wind_Speed
12 10 10 11 15 16 16 14 12 13 13 13 10 9 12 15 16 14 17 14 13 17
11 12 14 13 14 11 10 13 15 15 12 10 8 7 8 11 15 16 15 15 16 16
15 11 8 8 12 15 18 20 14 17 20 15 14 15 17 20 18 16 16 16 16 17
13 10 7 9 14 16 18 14 15 16 19 16 16 15 15 17 17 17 18 16 16 18
10 11 12 13 13 15 11 12 14 16 17 17 16 16 14 14 15 5 6 11 18 23
12 13 15 8 6 6 9 12 12 13 15 17 18 18 17 12 8 11 15 20 22 23
17 17 15 9 8 10 8 11 10 10 14 16 18 17 11 13 15 16 18 20 21 23
24 25 11 9 12 12 9 9 7 9 13 15 13 11 13 14 15 19 22 22 23 22
14 10 23 21 8 12 7 4 9 10 13 11 9 10 12 18 21 22 17 20 24 24
21 16 11 11 16 12 8 4 9 12 10 6 11 12 18 22 21 18 20 22 22 26
20 17 21 16 16 18 4 9 12 6 4 8 12 16 19 19 20 19 20 20 21 25
17 17 13 12 5 4 9 11 7 8 9 13 17 17 20 20 16 18 18 19 23 24
19 21 13 7 5 3 7 8 3 7 12 16 17 18 17 17 15 17 19 19 21 21
17 20 16 13 8 8 10 3 5 11 14 16 15 16 15 14 18 20 19 20 21 23

GFSNIL_925_spd_033.txt.gz
Wind_Speed
4 2 6 8 11 11 11 10 11 13 10 9 8 8 8 10 11 12 12 12 11 13
6 9 11 13 13 16 15 15 13 10 9 8 9 10 10 11 12 11 11 12 13 13
11 14 15 15 17 18 17 16 14 11 10 9 9 9 12 13 12 13 13 13 12 7
18 15 14 18 19 23 22 16 11 10 9 11 12 9 10 11 11 11 10 5 8 11
13 13 17 21 23 24 21 15 13 14 11 14 13 12 10 11 10 6 7 11 13 16
13 14 14 17 21 21 18 17 18 11 17 18 14 11 11 8 7 8 10 13 17 19
10 14 16 17 18 19 18 18 15 17 13 17 16 13 9 7 8 10 15 18 18 17
12 16 17 17 19 20 23 21 19 14 14 16 10 11 6 7 13 17 19 18 18 18
13 15 14 18 22 24 23 20 15 11 6 6 10 5 9 14 17 19 18 20 20 20
11 16 17 21 19 19 18 14 6 2 4 3 3 7 11 13 15 15 17 19 20 20
15 17 19 20 18 17 6 3 3 0 1 2 7 9 11 13 15 16 19 22 21 20
16 17 17 16 15 14 7 4 3 3 2 7 7 8 9 13 16 19 20 18 20 19
14 15 16 13 11 5 6 2 4 1 3 5 7 9 11 13 16 18 17 21 21 18
13 15 13 11 8 6 2 3 2 3 3 5 7 10 11 13 15 17 18 19 19 20

GFSNIL_925_spd_036.txt.gz
Wind_Speed
3 5 8 11 11 14 16 17 18 19 18 14 12 10 10 10 12 13 14 15 15 14
7 9 12 13 14 19 20 22 22 21 19 16 15 14 12 13 14 13 15 15 15 16
12 14 14 14 17 20 19 21 23 20 17 15 12 15 19 17 15 14 14 14 13 11
16 16 14 16 20 22 23 24 22 18 14 9 16 16 12 19 15 14 13 9 10 11
10 11 11 13 13 16 20 21 21 18 15 16 14 16 15 14 16 12 10 10 13 16
8 9 11 14 17 18 20 23 20 14 13 16 15 12 15 13 11 9 11 13 18 21
8 10 14 16 18 21 23 25 19 19 20 16 11 12 10 14 10 12 17 19 20 20
8 12 16 19 22 24 24 22 18 16 13 10 5 5 10 7 13 18 19 20 20 21
10 14 17 20 23 22 20 18 13 9 2 3 5 3 5 12 15 18 18 17 19 23
12 16 19 19 20 18 18 13 6 1 2 1 1 5 9 12 15 17 20 22 24 20
15 18 19 19 18 17 14 10 7 2 2 2 4 7 10 13 16 19 21 21 18 19
15 18 19 20 17 14 8 6 3 3 1 3 5 7 9 12 16 18 19 18 19 17
15 17 20 19 13 11 13 9 5 3 3 5 6 7 9 10 14 18 19 22 20 17
14 17 17 16 9 9 8 3 3 4 5 5 6 8 9 10 13 16 19 19 18 19

GFSNIL_925_spd_039.txt.gz
Wind_Speed
3 4 7 9 11 12 14 15 16 17 19 19 16 13 11 10 12 13 14 14 13 11
4 8 12 13 12 13 15 18 21 23 22 20 18 15 12 12 12 12 16 16 12 12
7 9 9 9 12 16 17 18 20 22 23 21 17 11 11 13 12 14 13 10 10 9
6 8 9 10 12 14 17 18 21 23 21 15 10 11 10 8 10 11 12 9 8 10
8 6 7 10 12 15 17 19 21 21 16 11 11 12 13 10 9 11 9 7 10 13
5 5 7 10 13 15 18 20 19 15 12 12 14 12 6 8 8 6 6 9 14 18
5 6 9 12 15 19 20 18 17 12 10 11 11 6 5 5 4 6 10 14 16 18
6 8 11 14 18 19 18 16 16 11 12 10 3 1 3 3 6 10 13 15 16 16
7 9 13 17 17 15 14 14 12 9 3 1 2 3 4 7 8 11 13 16 18 17
8 12 14 14 14 14 13 10 11 7 4 1 1 4 7 11 9 11 14 15 17 16
11 13 11 13 14 12 11 10 8 6 1 1 1 6 10 12 10 12 14 15 14 16
12 9 10 13 13 11 11 10 10 4 3 3 3 8 9 10 10 13 15 14 15 15
11 9 11 13 13 11 11 11 7 5 4 6 7 7 8 9 11 14 15 16 15 13
10 9 14 15 12 10 10 7 6 5 7 8 8 7 8 9 11 13 15 16 16 15

GFSNIL_925_spd_042.txt.gz
Wind_Speed
2 1 4 5 8 10 12 12 12 14 17 19 19 19 19 18 17 16 18 17 14 13
1 3 6 7 7 8 9 11 12 16 19 20 20 19 19 19 17 18 15 13 12 13
3 4 3 3 4 6 10 14 17 18 20 20 19 18 18 16 18 16 14 13 13 14
3 1 2 3 6 9 13 16 17 19 21 19 17 15 14 16 16 14 14 13 12 14
2 3 4 5 8 11 14 16 18 19 18 16 14 14 13 14 12 11 12 12 13 15
4 4 5 7 10 13 16 18 18 17 17 15 13 14 12 10 10 9 10 11 14 19
5 5 6 8 12 15 16 17 16 17 16 11 12 11 9 7 8 9 11 14 17 19
6 6 7 11 14 16 16 15 15 14 11 10 8 4 5 7 8 11 14 16 16 16
7 7 10 13 15 15 15 14 14 12 9 5 4 6 5 6 10 13 14 15 16 16
7 9 12 14 14 14 14 13 12 10 7 5 3 5 6 10 11 12 12 14 15 16
9 12 13 13 14 13 13 11 11 9 8 6 5 6 8 11 9 11 12 13 14 15
11 13 12 12 13 13 11 12 12 10 9 8 7 9 9 9 10 11 14 13 14 14
13 12 12 12 13 13 12 11 9 9 8 8 8 10 9 8 9 12 14 14 14 12
12 11 12 13 14 14 13 12 9 8 9 10 11 10 11 9 7 11 13 14 15 14

GFSNIL_925_spd_045.txt.gz
Wind_Speed
6 4 4 5 8 10 12 12 14 15 16 19 20 21 22 22 21 19 17 17 18 16
5 3 6 6 7 9 9 11 13 15 18 19 20 21 21 23 20 18 18 14 17 15
4 5 7 6 7 7 9 11 14 16 17 19 20 20 20 21 18 18 17 15 17 13
6 6 7 7 7 8 10 13 14 16 18 20 20 20 16 18 21 18 18 15 13 13
7 7 8 8 8 8 12 14 16 18 19 19 20 17 12 16 19 18 12 10 12 12
7 8 8 8 8 11 13 15 17 17 18 19 18 14 14 13 14 11 11 11 11 14
8 8 8 8 10 12 14 16 17 16 16 17 15 15 13 11 9 9 10 11 15 18
7 8 9 9 11 13 15 15 16 16 14 15 12 7 3 8 8 10 13 15 16 15
8 9 9 11 13 15 15 15 16 15 14 12 10 7 9 5 9 14 15 14 15 15
8 9 11 13 14 15 15 16 14 13 12 11 7 8 7 7 10 13 12 13 14 15
9 11 12 14 15 15 16 14 14 14 12 10 9 10 9 9 11 11 11 12 14 14
10 12 14 15 15 15 16 14 14 13 13 11 10 11 10 10 10 10 11 13 13 12
12 13 15 15 15 16 15 14 13 12 11 12 9 9 11 10 9 10 12 12 12 11
14 16 15 15 15 17 15 12 14 11 11 12 9 11 11 11 8 9 11 12 12 10

GFSNIL_925_spd_048.txt.gz
Wind_Speed
9 8 6 4 3 4 6 7 8 9 10 12 15 17 18 20 22 23 20 17 15 15
9 4 4 3 3 4 4 4 6 10 12 15 16 18 19 20 20 17 14 14 13 15
9 5 5 4 4 4 4 5 8 10 12 15 17 18 19 22 12 16 18 16 16 14
7 4 3 8 4 2 4 6 9 11 14 17 18 18 21 12 14 19 22 20 13 10
7 11 9 6 6 4 5 8 10 12 15 16 17 18 14 14 13 15 15 12 10 9
12 7 5 6 4 5 7 9 11 14 14 15 14 17 20 18 14 12 8 9 9 12
8 4 1 3 4 6 8 11 13 14 15 16 11 13 15 10 6 7 9 10 12 13
3 3 5 6 6 7 10 12 13 15 14 11 11 9 5 7 8 9 12 15 13 12
8 6 3 4 8 11 10 11 14 16 11 12 12 12 12 11 8 9 13 16 12 12
4 4 6 8 12 13 12 13 14 9 13 15 17 15 12 10 8 12 12 13 11 12
4 5 9 11 13 14 13 12 11 11 14 13 13 15 15 11 9 9 14 13 11 12
6 10 10 12 14 14 14 13 13 12 12 14 15 16 16 12 9 10 13 12 12 12
9 11 13 15 13 13 14 17 9 9 12 12 15 16 13 11 8 11 13 12 10 14
12 13 15 16 12 13 16 12 9 13 14 15 15 13 13 13 13 13 12 11 11 11

GFSNIL_925_spd_051.txt.gz
Wind_Speed
14 14 14 12 10 7 4 5 3 3 6 10 13 13 13 15 17 20 14 8 10 11
15 14 13 9 7 7 3 2 3 6 9 10 12 13 16 17 18 12 8 11 14 14
16 12 5 7 4 5 6 3 6 8 8 10 12 14 15 16 8 10 14 16 13 13
15 9 8 3 2 6 4 5 4 7 9 11 12 11 12 9 12 15 16 14 8 6
10 5 2 4 5 8 6 2 3 6 10 12 12 14 13 16 16 12 10 6 6 6
6 6 5 11 9 7 3 3 6 10 12 12 14 11 12 11 10 8 7 6 9 10
6 6 9 7 3 4 5 7 12 11 12 14 6 9 12 9 4 5 7 9 12 9
11 7 7 4 4 5 9 12 9 10 12 9 8 9 11 9 12 11 10 10 10 7
8 6 3 2 6 9 11 9 12 12 11 8 12 15 14 16 11 9 9 11 10 11
7 3 3 8 14 14 13 14 13 12 11 12 14 15 15 14 11 10 10 10 11 9
9 7 9 13 13 14 15 14 13 14 14 15 14 15 15 16 14 12 11 10 9 10
10 11 16 17 16 18 15 14 14 17 14 14 15 15 15 17 17 13 12 12 14 12
10 16 15 16 17 15 13 14 17 13 12 14 16 16 18 17 17 13 14 13 11 11
10 13 14 15 16 15 16 17 14 13 15 17 18 18 18 17 18 18 16 14 15 14

GFSNIL_925_spd_054.txt.gz
Wind_Speed
23 23 21 21 20 15 15 12 8 6 2 3 3 7 9 11 11 14 14 7 7 9
21 22 20 16 16 21 12 11 4 4 7 6 7 11 12 13 14 12 8 11 12 12
24 22 20 19 15 6 8 1 9 7 4 9 14 14 15 14 11 11 14 16 14 12
24 26 19 11 3 6 2 6 4 8 8 10 11 15 15 14 13 14 16 13 10 9
21 11 9 10 8 3 5 6 5 5 7 11 14 13 13 14 13 14 13 10 7 7
20 14 8 9 7 5 10 3 5 8 11 12 11 13 12 12 14 9 8 7 7 10
16 10 11 10 12 8 5 5 8 12 11 12 12 10 11 12 12 9 8 9 10 8
18 20 19 12 3 7 7 7 17 14 11 12 12 12 12 13 13 14 14 12 12 8
21 18 9 2 2 3 7 19 13 10 14 15 12 12 14 13 15 14 13 12 11 10
14 13 10 6 4 13 18 10 12 16 15 14 14 15 14 15 16 15 14 13 11 11
16 11 1 13 13 10 10 16 17 15 15 16 17 14 14 16 16 16 17 15 12 12
11 9 8 10 13 14 16 17 16 16 16 17 17 15 18 17 18 18 19 18 13 16
9 5 8 11 14 14 15 15 15 17 19 18 18 17 19 17 18 19 20 17 17 16
4 7 8 11 14 14 17 18 19 21 20 19 18 18 16 17 20 21 21 22 21 18

GFSNIL_925_spd_057.txt.gz
Wind_Speed
26 28 27 24 26 25 20 21 16 6 4 3 12 17 8 7 9 11 10 5 6 9
27 29 26 21 21 21 24 18 8 3 5 13 8 8 7 9 8 5 5 8 12 14
30 27 24 26 32 28 16 7 6 1 8 11 10 8 10 8 5 6 9 12 15 13
30 31 31 27 23 17 13 13 10 7 12 17 9 8 8 8 9 10 12 15 14 12
29 29 27 22 18 20 18 15 11 12 15 10 10 8 9 12 11 11 14 14 11 11
31 24 19 20 20 16 10 11 12 13 10 11 9 7 12 12 11 13 15 12 11 11
28 22 21 18 13 11 9 10 12 8 12 10 8 11 10 10 11 14 12 12 13 13
21 17 17 14 13 5 7 9 7 13 10 9 12 12 10 11 12 13 14 16 16 15
17 20 20 9 4 6 3 13 15 11 11 14 14 13 12 14 13 13 16 17 15 15
20 13 12 9 4 7 10 14 12 14 15 16 15 14 15 15 14 16 17 17 17 16
16 11 2 7 10 10 13 13 15 17 16 16 17 17 17 16 17 20 20 19 19 17
7 9 9 7 10 12 13 14 15 16 16 17 19 20 19 17 20 22 22 21 20 20
13 11 6 8 10 12 13 16 16 17 19 21 23 21 20 19 20 22 24 23 23 20
2 4 7 10 12 14 16 19 20 21 22 23 24 25 24 22 22 23 23 24 24 21

GFSNIL_925_spd_060.txt.gz
Wind_Speed
31 29 24 23 28 29 26 23 22 22 16 3 4 2 4 9 11 9 8 6 6 8
31 28 24 25 25 27 29 31 28 21 14 8 6 7 7 10 10 9 7 8 9 11
29 27 26 26 26 31 31 29 22 15 9 10 9 7 11 9 9 9 9 9 10 13
28 28 25 25 26 31 29 24 17 13 10 7 7 10 12 9 10 13 11 10 13 14
29 28 27 28 31 28 23 16 14 12 9 6 13 13 12 9 13 13 12 13 14 15
25 28 29 30 25 22 15 13 10 7 10 12 14 14 12 12 13 13 12 14 14 15
22 26 22 18 17 13 10 7 6 9 16 14 13 12 13 14 14 13 14 14 15 16
23 18 19 15 12 12 7 9 11 11 14 13 13 13 15 15 15 16 16 15 17 19
16 15 15 14 15 11 9 5 9 11 15 19 15 17 16 17 18 18 18 18 18 18
19 21 14 12 9 2 10 16 13 17 16 17 20 18 19 20 22 22 20 20 21 19
21 16 8 5 9 13 10 13 14 17 17 19 20 20 21 22 24 24 23 22 22 22
10 7 9 12 16 9 12 14 14 15 17 19 20 20 22 24 26 26 26 24 23 23
7 10 12 6 8 10 12 15 17 19 20 20 23 22 24 25 28 29 28 26 24 24
1 2 5 8 10 13 15 17 19 22 23 24 25 28 28 28 28 31 32 30 26 27

GFSNIL_925_spd_063.txt.gz
Wind_Speed
35 31 27 29 28 29 32 32 30 28 27 25 19 10 8 8 9 7 8 9 8 6
32 32 33 31 25 27 31 30 28 27 26 19 14 9 8 9 8 9 9 8 9 9
29 33 35 31 29 29 31 29 29 29 24 20 14 9 8 10 10 10 10 10 10 10
25 30 30 29 27 27 29 33 34 29 22 14 10 8 8 11 11 11 12 12 11 12
22 22 22 21 22 25 27 31 26 19 13 9 8 8 13 14 14 13 12 13 12 14
14 14 15 16 18 19 21 17 14 10 4 3 9 11 13 16 16 15 15 14 13 14
13 15 16 19 23 19 19 12 10 9 9 10 11 15 15 17 19 18 17 16 16 14
16 20 26 21 20 15 15 11 6 8 12 12 14 15 18 19 19 18 17 18 18 17
24 20 17 18 17 13 7 4 7 11 14 16 18 22 20 20 18 19 18 19 18 18
20 21 21 15 13 11 5 8 14 13 13 17 18 18 20 21 23 20 21 22 21 21
26 24 17 10 5 4 12 12 10 12 13 15 17 17 19 20 22 21 23 25 25 25
16 11 6 3 8 8 7 9 9 11 14 16 19 19 19 20 23 22 26 27 27 26
6 4 2 1 1 4 6 9 11 14 15 17 21 21 22 23 24 25 28 28 28 30
9 7 5 3 4 6 8 12 15 18 20 21 22 24 24 25 26 23 27 28 28 28

GFSNIL_925_spd_066.txt.gz
Wind_Speed
26 25 25 23 21 24 26 24 21 24 21 20 20 18 20 15 10 14 12 10 10 10
23 21 20 20 21 27 24 19 20 22 21 19 19 22 18 13 13 12 9 10 10 11
20 19 18 18 20 25 19 18 19 21 22 24 20 17 13 12 11 11 11 11 11 11
18 16 17 18 18 22 18 16 16 16 20 22 17 11 8 9 9 12 12 12 13 13
15 16 20 19 18 19 18 21 24 24 20 10 7 7 9 12 12 14 14 14 15 16
13 13 12 11 13 17 15 15 18 18 15 12 8 13 13 14 14 16 15 16 17 18
11 11 11 11 13 16 17 19 20 14 12 8 9 11 13 14 15 17 18 18 19 20
15 15 17 20 19 18 18 17 13 8 7 8 10 11 12 15 16 18 20 21 22 23
19 19 19 23 22 19 14 13 9 5 8 12 15 14 15 18 19 21 22 24 25 25
20 20 19 21 19 15 11 6 3 9 10 10 11 14 16 17 18 22 25 27 27 28
21 21 18 16 12 9 6 6 5 5 7 9 11 14 14 16 18 21 25 27 29 31
21 17 13 9 6 4 3 3 4 5 7 10 11 13 16 17 18 22 26 28 30 32
11 8 4 5 5 3 1 3 4 6 8 11 13 14 15 16 17 22 26 29 31 32
10 9 7 5 3 1 2 4 6 8 10 11 11 12 15 17 18 21 26 28 30 30

GFSNIL_925_spd_069.txt.gz
Wind_Speed
26 24 21 22 21 22 22 22 20 28 26 22 20 18 16 15 12 7 8 7 9 14
24 24 20 20 18 18 19 21 24 26 27 23 20 19 20 20 15 13 10 8 9 16
23 21 19 16 18 17 17 18 21 22 21 19 22 20 20 16 12 8 9 11 14 16
20 19 17 17 16 16 17 19 16 14 17 23 22 20 13 9 8 8 12 15 19 17
17 15 16 15 16 15 18 18 21 19 14 12 16 15 13 9 10 14 14 20 19 18
15 16 14 14 13 13 17 18 18 19 22 20 16 13 9 10 12 13 18 17 17 19
13 13 13 12 13 17 18 18 18 18 19 17 11 8 8 10 15 17 15 18 19 20
16 15 17 17 20 19 18 17 19 19 13 9 8 8 8 10 12 14 17 19 21 24
19 18 20 20 19 22 22 19 16 11 5 5 7 9 11 9 12 15 18 22 24 26
19 19 20 20 22 20 19 15 10 5 5 6 8 7 7 11 12 16 20 23 26 27
20 20 18 17 18 15 10 8 5 6 5 3 5 7 9 12 13 17 20 23 25 28
19 18 16 15 11 9 8 6 4 2 2 4 4 5 11 12 13 16 20 22 25 27
16 14 9 9 8 6 5 3 2 1 2 4 6 8 11 13 13 16 19 21 23 26
11 10 9 8 6 5 3 2 1 2 3 5 4 6 12 14 11 15 19 24 26 27

GFSNIL_925_spd_072.txt.gz
Wind_Speed
34 25 29 26 25 26 25 26 26 25 29 25 25 23 23 19 24 20 18 15 12 9
30 30 27 26 23 21 22 22 22 21 24 23 20 17 17 23 21 17 15 11 8 9
30 28 27 23 26 22 19 16 21 23 22 23 21 20 21 19 17 14 11 9 10 12
26 24 22 21 15 16 17 18 18 19 22 22 22 21 20 13 14 13 11 14 13 15
27 22 21 19 19 21 20 21 20 21 22 22 20 21 21 18 14 14 16 17 16 17
22 27 24 19 20 18 21 19 21 20 21 24 23 17 13 12 13 15 16 14 16 19
20 20 18 17 17 18 20 24 22 20 18 16 14 14 14 13 13 13 14 18 19 18
19 19 18 16 18 19 19 19 17 17 15 17 16 13 10 8 11 11 13 16 17 19
20 19 19 20 20 21 19 17 17 19 18 13 10 8 9 10 7 9 12 14 16 19
22 23 22 23 22 21 22 21 18 13 9 7 7 9 10 10 8 10 12 15 18 21
22 22 22 23 23 23 21 16 9 9 8 7 11 9 7 4 5 7 10 14 16 19
21 21 21 21 21 17 13 10 10 8 7 4 8 3 3 5 6 8 12 14 14 17
21 20 20 17 13 12 11 10 8 9 5 4 2 1 6 9 10 10 12 16 21 21
19 17 15 15 14 11 10 10 7 4 3 1 1 2 8 10 9 11 17 18 20 22

GFSNIL_925_spd_075.txt.gz
Wind_Speed
43 46 39 39 37 40 40 39 37 36 32 29 27 28 23 23 21 19 19 19 18 14
44 41 43 40 31 36 36 32 32 33 26 24 25 24 24 22 15 20 20 19 16 15
45 44 37 37 37 32 35 32 27 27 23 21 22 21 21 19 22 22 21 17 13 13
40 43 42 35 29 24 27 28 26 24 22 23 23 24 24 22 21 21 18 15 15 15
40 37 30 18 22 23 26 22 18 17 21 22 23 23 22 22 21 18 16 14 13 15
31 26 28 30 26 26 22 19 17 17 19 21 22 22 21 19 15 13 12 10 12 12
22 25 23 23 23 20 19 19 21 21 22 22 20 19 16 14 12 10 8 8 10 15
23 24 23 20 19 18 19 20 21 21 19 19 19 18 17 11 7 4 6 9 11 9
22 21 20 18 18 19 20 19 19 20 20 20 18 14 10 8 7 6 5 7 10 12
21 21 21 21 22 22 22 22 21 20 18 14 11 9 9 9 7 5 4 5 6 7
24 25 25 25 26 25 25 24 22 17 13 11 10 10 14 10 7 4 3 5 8 11
26 27 27 27 27 26 25 19 14 13 14 17 16 11 10 7 5 4 6 8 9 12
25 27 26 27 26 23 18 14 13 19 19 17 16 8 4 2 1 3 6 8 10 10
25 25 25 24 21 19 15 23 21 20 15 12 9 7 3 2 3 5 9 10 13 15

GFSNIL_925_spd_078.txt.gz
Wind_Speed
43 40 42 38 42 40 39 42 44 45 43 42 34 28 27 29 28 28 28 21 18 24
45 41 40 41 43 46 44 43 43 44 44 39 30 26 25 26 28 24 22 22 22 25
42 47 42 43 49 41 41 39 36 37 33 30 29 25 27 26 24 22 22 23 24 22
40 46 43 38 35 36 23 26 26 21 33 33 26 25 27 26 25 26 24 23 20 18
40 39 36 29 29 35 21 26 26 38 35 32 26 25 25 25 23 22 22 19 17 15
31 33 36 34 33 29 25 31 30 38 33 27 25 25 22 23 22 20 19 16 14 10
22 26 32 31 34 32 30 32 35 30 26 25 25 24 22 21 19 18 13 10 8 8
22 20 22 23 25 27 28 28 26 27 25 25 23 23 23 20 17 13 10 8 5 3
18 20 24 24 23 23 24 26 26 23 24 23 23 21 18 17 15 12 10 9 6 4
23 23 22 23 24 24 25 24 24 23 23 22 19 18 16 14 13 11 9 6 6 4
25 25 24 23 23 24 24 24 24 22 21 20 17 15 16 14 12 10 7 4 3 6
23 24 24 23 23 23 24 22 23 21 18 16 14 14 16 14 12 8 4 2 3 5
20 21 22 23 24 23 23 22 17 18 17 16 18 14 13 10 7 4 1 2 3 4
17 20 22 23 24 23 18 17 18 20 20 19 15 13 8 5 3 2 1 3 5 6

GFSNIL_925_spd_081.txt.gz
Wind_Speed
36 34 36 33 35 37 35 39 41 42 43 44 44 41 39 36 29 30 34 34 30 25
39 36 33 34 34 39 39 39 39 39 40 41 41 39 36 33 30 29 31 31 30 27
36 39 39 36 38 41 35 32 31 32 35 36 35 29 28 29 27 27 28 28 24 27
37 38 39 39 37 40 37 35 31 31 31 30 26 31 31 33 29 26 26 25 25 24
34 34 35 38 41 40 36 31 30 27 24 25 30 32 34 29 26 26 26 23 21 21
37 37 41 43 42 39 37 40 36 36 38 32 33 31 32 24 24 26 24 21 20 19
39 42 40 42 41 38 37 37 35 36 34 33 34 31 26 24 24 22 19 17 16 13
34 35 34 31 32 32 33 32 30 27 28 30 28 25 24 24 22 20 17 13 11 10
23 21 19 19 21 23 23 22 23 26 26 23 21 22 22 20 21 20 17 15 14 12
17 17 17 17 19 20 19 19 20 20 19 19 18 17 19 19 19 17 17 16 15 10
15 17 19 20 20 20 21 21 20 19 18 18 19 19 19 18 17 16 14 11 9 6
15 18 19 19 19 19 19 19 19 19 20 21 20 17 17 17 16 14 10 6 4 3
12 14 15 15 16 17 18 20 21 21 17 16 18 16 15 12 12 11 7 4 2 2
10 11 13 15 16 19 21 22 20 20 18 16 16 15 11 9 7 5 4 3 2 2

GFSNIL_925_spd_084.txt.gz
Wind_Speed
37 37 37 34 34 36 39 41 38 35 33 33 33 34 34 35 37 38 36 37 39 39
39 38 36 37 37 38 39 36 34 35 35 35 34 35 37 36 36 33 33 36 35 36
38 40 39 36 38 40 40 38 37 36 35 34 34 36 33 33 29 25 26 28 29 32
37 39 40 40 40 41 42 43 41 39 39 36 36 37 32 30 26 24 31 34 31 28
45 41 41 43 46 43 44 41 38 39 39 36 36 38 32 34 28 27 32 33 28 24
32 34 39 36 35 38 41 41 40 38 38 35 39 40 29 28 26 26 29 28 25 24
34 38 36 37 38 37 37 38 38 36 37 38 37 34 29 28 25 25 25 24 21 19
32 30 33 34 34 35 33 31 34 32 35 32 31 30 29 27 26 24 23 17 15 14
25 27 27 28 26 25 24 25 28 29 28 26 26 26 24 26 24 21 19 19 16 13
20 18 18 14 14 15 19 21 21 20 20 20 19 16 19 19 17 19 19 16 15 13
13 13 13 13 14 16 16 16 15 14 14 13 14 15 16 18 20 19 16 16 13 8
13 14 14 14 13 13 14 14 15 14 14 20 19 15 16 18 19 18 15 12 9 7
9 10 11 12 13 14 15 16 17 19 19 19 19 12 12 12 15 17 15 11 7 4
9 9 10 13 14 15 18 22 22 22 19 18 16 15 13 11 12 11 10 6 4 2

GFSNIL_925_spd_090.txt.gz
Wind_Speed
27 30 27 30 30 32 32 32 27 28 28 26 24 22 18 19 21 22 22 25 25 26
29 29 27 26 29 29 31 31 31 29 27 24 23 22 21 23 25 23 23 24 25 27
30 32 28 28 29 29 29 29 29 28 26 26 25 24 26 26 24 21 21 23 26 30
30 32 32 31 31 30 29 30 30 30 29 29 30 31 30 29 24 21 23 27 33 37
28 28 30 32 30 29 31 30 32 31 31 34 34 33 31 32 32 33 36 48 37 37
29 29 29 29 29 30 29 29 29 29 30 30 31 30 30 36 40 41 42 40 35 36
30 29 28 28 28 28 28 27 26 26 28 27 27 28 31 30 32 35 33 32 35 39
26 25 25 25 24 24 25 26 26 25 26 26 27 27 26 30 34 34 32 30 29 26
24 24 24 23 23 23 23 22 22 22 23 23 25 31 31 31 27 26 22 19 14 13
21 20 20 20 20 19 18 17 17 16 18 16 16 19 17 14 14 12 11 11 10 10
17 16 13 11 11 12 12 10 6 3 2 1 4 3 3 6 8 10 11 12 12 13
16 16 16 14 12 10 11 11 11 11 12 13 13 5 3 6 17 21 20 18 15 14
18 20 19 18 17 16 17 19 20 22 22 21 20 15 16 19 20 22 20 16 16 16
24 25 23 23 21 22 25 27 28 29 25 25 22 20 18 18 18 17 15 11 10 8

GFSNIL_925_spd_093.txt.gz
Wind_Speed
27 21 24 29 31 32 29 30 30 34 26 24 21 21 22 21 19 22 22 21 20 22
26 27 26 27 29 34 37 31 32 30 29 28 25 25 22 20 21 23 23 23 23 24
27 28 29 28 32 29 32 32 29 31 30 25 26 26 24 25 25 26 26 23 23 26
27 27 27 25 26 31 29 31 32 30 30 28 28 27 29 28 28 28 28 28 28 29
30 30 31 29 26 25 26 26 28 28 28 29 30 31 32 31 30 31 31 32 30 35
29 31 31 30 28 27 28 27 28 29 30 30 30 31 31 31 31 32 31 30 31 38
29 29 29 29 29 29 28 28 28 28 29 29 29 29 30 30 29 27 28 33 36 36
27 26 26 26 26 26 27 27 26 25 25 23 24 25 26 25 27 26 24 22 21 18
27 26 26 25 24 23 22 21 21 21 22 24 18 22 22 22 25 23 15 10 4 3
27 26 25 24 22 21 20 19 13 13 9 6 4 10 14 11 7 4 4 5 6 10
26 25 23 22 18 16 15 12 10 9 8 9 10 8 4 5 12 15 16 16 16 15
21 21 17 20 18 17 18 18 17 17 17 18 17 13 13 14 20 22 22 19 16 16
18 21 22 23 23 23 25 28 27 28 25 24 23 19 20 21 23 24 22 19 18 17
25 28 27 29 28 30 32 34 33 34 31 31 28 25 23 21 22 20 18 15 13 13

GFSNIL_925_spd_096.txt.gz
Wind_Speed
30 28 29 32 32 29 31 31 33 34 34 29 29 27 29 22 22 23 24 28 26 25
28 29 28 33 31 30 28 29 32 34 36 33 28 33 25 23 26 27 29 28 28 28
28 26 28 31 32 31 31 30 31 37 41 41 34 28 28 29 30 30 31 30 29 29
27 30 29 28 32 33 35 34 34 37 39 38 38 35 34 32 31 31 31 31 30 31
30 30 32 31 31 35 34 38 40 38 36 38 36 35 33 33 28 30 30 30 31 34
31 32 31 31 34 35 36 35 35 37 35 33 33 31 31 31 31 32 32 32 32 34
32 33 34 31 30 31 28 28 31 31 32 31 28 29 30 31 32 33 33 31 29 23
33 32 32 33 34 32 31 31 30 29 30 29 29 29 31 29 28 25 20 12 8 2
30 31 31 31 32 32 31 30 29 28 29 26 22 20 23 21 18 12 6 8 9 9
29 29 29 27 28 29 29 27 27 20 18 14 11 4 8 13 8 9 13 14 14 17
26 27 26 26 24 21 24 23 20 16 15 17 15 12 11 14 18 21 21 20 20 20
27 25 25 20 24 24 27 24 23 21 21 22 21 17 18 20 26 28 27 24 22 21
26 28 29 29 29 28 29 30 28 29 26 26 26 22 23 26 29 31 28 24 22 20
30 36 35 32 31 34 37 37 35 36 33 33 29 26 26 25 26 26 23 20 19 19

GFSNIL_925_spd_099.txt.gz
Wind_Speed
31 30 28 32 28 30 34 37 36 33 34 38 35 33 28 24 26 27 29 27 25 24
30 28 28 32 33 32 29 28 28 35 37 35 32 29 28 28 29 31 28 30 30 27
30 32 29 30 31 30 30 29 30 37 37 39 32 29 28 28 27 30 32 33 30 29
30 32 31 32 33 33 33 34 33 37 37 38 37 36 33 31 30 36 33 31 29 33
29 34 35 35 34 34 34 38 39 40 39 40 42 43 39 33 33 33 33 31 32 35
31 34 34 36 38 36 35 37 39 38 41 40 40 38 40 41 40 37 36 35 35 36
33 33 35 34 34 38 38 37 40 39 38 37 38 39 40 38 39 37 32 27 25 21
32 33 32 33 34 36 34 34 35 35 34 36 35 35 36 37 33 31 25 17 11 8
33 33 34 35 34 36 33 30 34 35 33 30 33 33 32 30 23 20 17 15 13 12
34 33 32 31 32 31 33 32 29 29 27 22 19 15 21 21 18 16 16 16 17 18
34 35 32 33 34 33 32 30 25 21 20 20 15 14 16 19 20 23 24 23 22 22
30 30 32 30 29 28 29 26 25 24 24 24 22 21 25 26 30 32 31 27 25 24
32 35 32 31 31 30 31 31 29 28 25 25 26 23 26 30 36 37 32 27 24 22
23 28 30 31 28 31 37 40 36 36 32 29 27 27 29 31 34 33 30 27 24 24

GFSNIL_925_spd_105.txt.gz
Wind_Speed
18 19 21 24 26 28 33 32 38 35 37 40 41 40 36 28 25 20 21 20 28 25
18 19 21 23 27 27 25 30 38 40 40 40 39 37 40 35 31 23 14 16 17 19
23 20 20 23 23 25 27 27 33 37 39 39 35 37 32 29 32 33 27 27 24 23
24 25 24 25 26 25 28 32 33 34 36 37 38 33 34 35 34 33 35 34 32 28
26 25 27 26 27 28 29 30 33 31 32 33 32 34 35 33 32 34 33 33 30 30
27 28 29 30 29 28 28 29 30 36 34 30 33 37 38 39 36 34 35 32 30 27
25 27 28 31 31 32 30 31 33 32 31 31 32 36 38 37 33 30 31 31 31 29
19 23 25 29 32 31 33 34 35 35 34 35 34 34 36 34 32 32 31 29 27 25
19 22 25 24 28 30 32 31 33 34 35 35 36 35 37 35 35 33 31 28 22 17
27 23 24 24 24 26 29 31 31 32 32 32 33 33 33 32 32 31 30 26 21 15
29 28 24 26 26 27 26 29 28 28 29 29 29 31 30 30 31 27 22 22 22 22
28 26 25 23 26 27 26 26 28 28 26 25 22 20 24 28 25 23 21 20 22 24
26 27 28 27 25 26 28 28 25 22 20 18 19 20 26 26 31 32 31 29 27 26
26 30 30 31 30 27 28 27 23 21 18 17 16 16 18 25 32 36 35 32 30 27

GFSNIL_925_spd_108.txt.gz
Wind_Speed
16 16 19 21 25 20 26 30 37 36 35 32 26 29 33 36 34 33 31 32 27 20
16 16 18 19 24 27 23 30 36 37 38 41 38 30 27 27 25 26 25 24 21 20
16 15 17 19 21 25 28 30 32 33 35 38 41 44 40 34 32 29 28 30 24 17
15 13 15 18 20 23 26 29 32 36 37 37 39 41 38 33 35 37 33 28 29 33
19 18 16 16 20 21 23 24 28 28 31 36 36 36 38 36 34 36 35 35 33 34
18 19 20 19 19 20 22 25 28 29 29 30 39 36 35 38 37 35 38 36 37 40
19 19 20 22 22 22 22 24 25 29 31 31 29 34 34 34 33 34 34 31 29 30
23 22 20 18 23 24 23 25 27 27 28 30 30 29 29 29 32 32 29 26 26 25
24 24 25 23 21 23 25 26 25 26 27 29 30 32 31 32 35 32 31 28 21 17
26 25 26 26 25 24 25 25 26 27 28 29 31 31 30 30 31 32 30 27 23 17
25 24 26 26 26 26 26 28 27 28 28 29 29 29 28 28 27 26 23 22 21 20
19 23 24 27 28 27 25 25 26 27 28 29 29 28 28 29 26 21 18 18 18 21
13 25 26 25 28 27 27 25 23 21 19 18 20 20 22 24 25 26 28 26 27 26
13 17 29 27 27 30 29 27 22 19 15 15 14 15 20 26 30 36 34 31 31 29

GFSNIL_925_spd_111.txt.gz
Wind_Speed
13 13 13 18 15 22 22 27 31 33 32 31 35 37 37 33 36 36 37 36 31 25
12 12 17 19 16 20 21 28 33 32 32 31 32 33 35 33 31 35 37 33 31 23
12 12 15 15 16 19 24 31 34 37 35 33 29 29 32 30 32 32 28 32 33 28
13 10 12 15 17 20 20 29 34 37 41 38 37 31 27 28 28 27 31 31 32 32
15 12 10 12 14 16 22 25 26 29 31 32 41 44 37 35 36 36 34 34 31 31
17 18 15 13 14 14 17 20 24 26 30 33 37 37 41 37 33 34 31 31 33 33
18 18 21 19 16 16 16 16 18 24 27 32 36 39 38 36 32 31 35 33 35 36
17 17 19 22 21 18 17 17 17 21 24 26 28 31 32 35 35 36 32 32 34 28
18 17 17 21 25 24 22 20 20 20 21 23 26 31 31 34 32 31 33 28 24 21
18 18 19 19 19 23 25 25 24 23 22 24 25 27 26 26 25 24 24 25 24 20
17 20 22 20 21 20 22 27 29 28 26 25 24 23 22 22 24 22 24 26 26 23
9 17 22 24 24 22 23 22 23 28 28 27 25 24 24 24 25 21 20 21 22 22
11 12 17 26 25 26 27 26 27 27 27 28 27 27 28 28 28 25 23 19 19 21
13 9 12 21 26 26 27 27 23 21 18 21 26 28 29 29 32 34 33 32 31 31

GFSNIL_925_spd_114.txt.gz
Wind_Speed
16 15 17 17 15 16 21 26 29 35 36 38 39 44 43 40 39 36 33 32 28 24
15 16 15 13 12 17 17 22 25 30 31 31 35 35 38 36 35 32 30 32 28 23
14 14 12 12 10 14 18 21 24 27 29 31 34 35 33 31 31 31 28 27 26 22
13 13 11 11 10 13 19 24 26 28 30 30 31 35 30 29 32 31 28 27 27 23
13 13 10 9 10 15 21 25 29 29 30 31 29 32 32 31 31 30 28 28 28 26
15 14 12 11 10 11 19 24 28 31 30 30 29 34 32 30 30 29 31 35 30 27
16 16 14 12 12 12 13 21 25 30 32 32 35 35 35 33 33 30 29 30 31 30
16 16 14 14 13 13 14 15 20 24 28 32 33 34 33 33 32 28 25 29 29 30
15 15 16 16 15 14 14 15 16 17 25 27 28 33 35 36 33 33 29 33 33 32
14 16 17 16 16 16 15 15 15 16 19 20 25 28 30 35 33 33 33 33 34 29
3 15 17 16 16 17 17 17 16 17 17 18 22 22 26 29 30 32 32 33 34 32
11 7 4 18 20 19 18 18 17 18 20 19 16 22 24 29 27 25 24 26 28 27
12 10 9 8 16 20 20 20 22 19 18 19 22 21 26 30 29 26 24 22 22 23
13 11 9 11 13 19 19 20 22 21 15 15 16 15 21 30 30 31 27 24 21 23

GFSNIL_925_spd_117.txt.gz
Wind_Speed
19 18 16 16 15 16 18 16 17 27 28 33 38 40 44 40 42 42 34 32 31 23
19 17 16 15 14 15 12 12 15 22 27 32 39 42 41 39 42 42 36 34 29 28
19 17 13 13 10 11 11 13 15 18 23 29 32 36 39 34 37 38 36 35 35 33
16 15 13 12 11 11 11 13 15 16 21 26 28 29 33 31 31 37 36 32 32 29
13 13 13 11 11 10 14 14 15 16 22 25 27 29 28 28 28 34 35 32 29 27
13 13 12 11 10 11 15 17 17 21 24 26 26 28 27 26 27 27 28 29 30 29
13 12 13 13 12 12 15 19 22 25 25 25 26 29 31 30 30 27 27 29 32 31
13 15 16 14 13 12 14 20 22 26 27 28 26 26 30 28 27 26 26 27 27 28
13 14 13 12 13 14 13 16 22 25 27 29 31 31 31 29 30 28 27 28 28 27
7 13 9 12 14 13 15 15 20 21 25 26 29 33 37 34 29 30 30 26 29 28
17 8 6 13 12 15 14 14 15 14 16 23 26 26 28 31 32 29 30 33 33 35
19 13 9 3 14 14 14 13 13 13 15 16 15 19 23 26 30 26 27 28 29 32
16 15 11 10 8 10 16 15 13 12 13 14 9 13 19 22 26 25 22 19 20 22
12 14 13 12 11 10 10 16 17 15 11 10 9 10 17 22 22 24 22 18 16 15

GFSNIL_925_spd_120.txt.gz
Wind_Speed
29 24 17 18 19 20 21 23 20 26 30 31 29 33 34 36 40 41 41 36 34 33
22 19 17 13 15 13 17 17 22 23 25 28 31 34 37 35 35 41 41 41 38 35
14 17 12 13 15 15 16 16 15 20 22 24 29 33 36 35 38 36 37 37 39 34
15 16 16 14 13 17 12 14 16 15 17 19 26 30 33 34 32 37 37 39 39 34
15 19 15 14 14 14 14 13 15 14 12 14 19 25 29 26 27 29 30 33 37 37
8 9 9 13 12 16 14 14 13 12 13 18 21 24 27 29 27 29 29 35 38 37
8 9 10 13 13 12 13 14 14 13 15 21 21 23 22 24 25 26 24 34 37 33
6 10 11 12 16 15 14 15 14 15 18 20 22 24 25 24 26 26 23 23 30 36
10 13 12 13 16 16 14 14 15 17 21 21 21 23 24 25 25 25 25 23 23 23
17 13 11 7 14 16 16 14 17 17 20 22 23 23 23 25 24 24 25 28 26 26
19 17 13 9 8 14 15 16 17 18 18 19 22 25 27 27 24 23 23 26 27 29
15 16 16 12 10 7 10 14 15 14 17 18 20 19 23 30 28 23 24 24 25 30
15 15 16 17 13 9 6 10 17 14 14 15 14 14 15 22 27 22 20 16 16 17
18 15 14 16 14 10 7 9 19 18 13 12 9 12 15 19 23 26 21 18 18 17

GFSNIL_925_spd_123.txt.gz
Wind_Speed
30 29 30 30 29 31 31 29 25 27 29 31 34 32 33 35 34 38 39 41 35 32
25 27 27 26 29 31 30 27 23 30 30 31 33 35 35 33 36 38 39 38 42 32
14 19 16 20 20 20 23 22 22 23 25 29 33 35 34 33 35 35 36 40 40 38
8 13 14 14 13 14 17 19 22 22 21 24 28 30 34 33 33 36 31 32 39 40
9 14 14 15 14 15 15 16 16 17 20 23 27 29 31 32 32 34 36 36 38 41
5 12 15 15 12 15 16 15 13 16 18 20 22 24 26 29 29 30 32 29 33 37
4 5 9 11 13 17 17 14 15 16 17 19 18 19 20 23 25 26 27 28 35 36
9 1 4 8 15 17 16 15 15 16 16 16 17 17 19 20 22 23 24 23 30 33
12 7 3 11 15 18 17 16 16 16 16 17 17 16 17 17 20 19 19 18 29 34
16 11 8 6 1 19 19 17 18 16 19 20 18 16 17 18 16 13 17 13 14 30
20 16 13 9 6 8 15 18 17 19 21 20 20 18 17 18 17 13 11 11 14 12
20 16 15 13 11 8 8 11 18 18 19 18 17 19 20 20 18 17 14 14 16 21
19 16 16 15 13 10 6 8 15 16 15 16 15 15 18 25 21 17 15 12 13 15
19 16 16 16 14 14 7 2 17 17 12 9 8 11 15 20 27 24 20 16 14 13